GW3914 Weather Reports


time (UTC)temp
F
wind
direction
speed
knots
gust
knots
rain 1hr
in
rain 24hr
in
rain mn
in
humidity
%
barometer
mb
20260503193300 79 344 1.7 1.7 0.00 0.00 0.00 54 1015.2
20260503192756 77 315 1.7 1.7 0.00 0.00 0.00 58 1015.4
20260503192251 77 322 0.0 1.7 0.00 0.00 0.00 59 1015.5
20260503191748 77 306 1.7 2.6 0.00 0.00 0.00 55 1015.5
20260503191245 79 319 2.6 4.3 0.00 0.00 0.00 53 1015.5
20260503190742 79 328 1.7 4.3 0.00 0.00 0.00 56 1015.6
20260503190239 77 325 2.6 4.3 0.00 0.00 0.00 55 1015.6
20260503185737 77 346 2.6 4.3 0.00 0.00 0.00 55 1015.6
20260503185232 77 319 0.9 1.7 0.00 0.00 0.00 55 1015.7
20260503184727 77 333 0.9 2.6 0.00 0.00 0.00 52 1015.9
20260503184223 76 331 0.9 1.7 0.00 0.00 0.00 56 1015.8
20260503183720 76 271 3.5 4.3 0.00 0.00 0.00 55 1016.0
20260503183217 75 328 2.6 4.3 0.00 0.00 0.00 56 1015.9
20260503182716 75 50 4.3 7.8 0.00 0.00 0.00 55 1015.9
20260503182214 75 280 2.6 2.6 0.00 0.00 0.00 57 1015.9
20260503181709 75 354 3.5 4.3 0.00 0.00 0.00 56 1016.1
20260503181207 75 302 0.0 0.0 0.00 0.00 0.00 58 1016.1
20260503180703 74 332 1.7 2.6 0.00 0.00 0.00 58 1016.2
20260503180202 74 317 2.6 2.6 0.00 0.00 0.00 57 1016.1
20260503175658 74 250 2.6 2.6 0.00 0.00 0.00 57 1016.0
20260503175156 73 60 4.3 4.3 0.00 0.00 0.00 60 1016.2
20260503174651 74 291 2.6 4.3 0.00 0.00 0.00 56 1016.3
20260503174149 73 311 0.9 1.7 0.00 0.00 0.00 60 1016.2
20260503173644 73 337 3.5 4.3 0.00 0.00 0.00 58 1016.3
20260503173141 72 327 1.7 1.7 0.00 0.00 0.00 58 1016.4
20260503172638 73 0 4.3 4.3 0.00 0.00 0.00 59 1016.5
20260503172135 72 274 3.5 4.3 0.00 0.00 0.00 60 1016.3
20260503171631 72 350 2.6 2.6 0.00 0.00 0.00 58 1016.2
20260503171129 72 353 3.5 4.3 0.00 0.00 0.00 61 1016.3
20260503170626 72 266 3.5 4.3 0.00 0.00 0.00 61 1016.2
20260503170122 72 290 2.6 2.6 0.00 0.00 0.00 60 1016.3
20260503150514 66 317 0.0 0.0 0.00 0.00 0.00 66 1016.6
20260503131401 53 325 0.0 0.0 0.00 0.00 0.00 86 1016.5
20260503130858 53 325 0.9 1.7 0.00 0.00 0.00 86 1016.5
20260503130356 53 302 0.0 0.0 0.00 0.00 0.00 84 1016.5
20260503110750 53 306 0.0 0.0 0.00 0.00 0.00 87 1016.5
20260503110247 53 303 0.0 0.0 0.00 0.00 0.00 89 1016.8
20260503100213 57 320 0.0 0.0 0.00 0.00 0.00 82 1016.9
20260503090137 58 301 0.0 1.7 0.00 0.00 0.00 83 1017.0
20260503081608 58 296 0.0 0.0 0.00 0.00 0.00 88 1017.1
20260503081105 58 275 0.0 0.0 0.00 0.00 0.00 88 1017.2
20260503080601 57 296 0.0 0.0 0.00 0.00 0.00 90 1017.1
20260503072539 59 287 0.9 1.7 0.00 0.00 0.00 88 1017.3
20260503072036 58 284 0.0 1.7 0.00 0.00 0.00 89 1017.2
20260503071533 58 292 0.0 0.0 0.00 0.00 0.00 90 1017.2
20260503071030 58 309 0.0 1.7 0.00 0.00 0.00 90 1017.1
20260503070526 58 297 0.0 0.0 0.00 0.00 0.00 90 1017.0
20260503054945 61 291 0.0 1.7 0.00 0.00 0.00 87 1016.7
20260503054441 60 262 0.0 1.7 0.00 0.00 0.00 87 1016.7
20260503053939 60 307 0.9 1.7 0.00 0.00 0.00 87 1016.8
20260503053437 60 296 0.0 0.0 0.00 0.00 0.00 87 1016.9
20260503052933 60 283 0.0 1.7 0.00 0.00 0.00 86 1016.9
20260503052431 60 288 0.9 1.7 0.00 0.00 0.00 86 1016.9
20260503051927 60 292 0.0 0.0 0.00 0.00 0.00 86 1016.7
20260503051423 60 291 0.0 1.7 0.00 0.00 0.00 86 1016.8
20260503050920 60 294 0.0 0.0 0.00 0.00 0.00 86 1016.8
20260503050416 60 294 0.0 0.0 0.00 0.00 0.00 86 1016.8
20260503045914 60 297 0.0 0.0 0.00 0.00 0.00 86 1016.8
20260503045411 60 297 0.0 0.0 0.00 0.00 0.00 85 1016.7
20260503044908 60 297 0.0 0.0 0.00 0.00 0.00 84 1016.7
20260503044405 61 297 0.0 0.0 0.00 0.00 0.00 84 1016.5
20260503043902 61 297 0.0 0.0 0.00 0.00 0.00 84 1016.5
20260503043358 62 297 0.0 0.0 0.00 0.00 0.00 83 1016.6
20260503042855 62 296 0.0 0.0 0.00 0.00 0.00 81 1016.4
20260503042351 62 298 0.0 0.0 0.00 0.00 0.00 81 1016.4
20260503041847 62 298 0.0 0.0 0.00 0.00 0.00 81 1016.3
20260503041345 63 298 0.0 0.0 0.00 0.00 0.00 81 1016.4
20260503040842 63 301 0.0 1.7 0.00 0.00 0.00 81 1016.3
20260503040340 64 300 0.0 1.7 0.00 0.00 0.00 80 1016.4
20260503035837 64 302 0.0 0.0 0.00 0.00 0.00 80 1016.0
20260503035334 64 302 0.0 0.0 0.00 0.00 0.00 79 1015.8
20260503034831 65 302 0.0 0.0 0.00 0.00 0.00 79 1015.9
20260503034328 65 302 0.0 0.0 0.00 0.00 0.00 77 1015.9
20260503033826 66 302 0.0 0.0 0.00 0.00 0.00 76 1015.7
20260503033323 66 302 0.0 0.0 0.00 0.00 0.00 75 1015.8
20260503032821 66 310 0.0 0.0 0.00 0.00 0.00 75 1015.6
20260503032320 68 311 0.0 0.0 0.00 0.00 0.00 72 1015.6
20260503031816 68 311 0.0 0.0 0.00 0.00 0.00 70 1015.5
20260503031314 68 311 0.0 0.0 0.00 0.00 0.00 70 1015.6
20260503030810 68 310 0.0 0.0 0.00 0.00 0.00 69 1015.3
20260503030307 69 315 0.9 1.7 0.00 0.00 0.00 69 1015.4
20260503025803 69 312 0.0 0.0 0.00 0.00 0.00 67 1015.4
20260503025301 69 313 0.0 0.0 0.00 0.00 0.00 67 1015.4
20260503024758 70 313 0.0 0.0 0.00 0.00 0.00 67 1015.5
20260503024255 71 307 0.0 0.0 0.00 0.00 0.00 65 1015.2
20260503023752 73 302 0.0 0.0 0.00 0.00 0.00 63 1015.1
20260503023249 73 326 0.0 0.0 0.00 0.00 0.00 57 1015.2
20260503022745 73 317 0.9 1.7 0.00 0.00 0.00 56 1015.3
20260503022240 74 329 1.7 1.7 0.00 0.00 0.00 56 1015.3
20260503021737 74 330 1.7 1.7 0.00 0.00 0.00 55 1015.2
20260503021233 75 340 3.5 4.3 0.00 0.00 0.00 55 1015.1
20260503020731 75 24 2.6 2.6 0.00 0.00 0.00 55 1015.2
20260503020228 75 327 1.7 2.6 0.00 0.00 0.00 56 1015.2
20260503015725 75 340 1.7 2.6 0.00 0.00 0.00 57 1015.1
20260503015222 75 335 2.6 2.6 0.00 0.00 0.00 56 1015.2
20260503014717 75 336 3.5 4.3 0.00 0.00 0.00 56 1015.2
20260503014216 75 338 1.7 2.6 0.00 0.00 0.00 56 1015.1
20260503013712 75 343 3.5 4.3 0.00 0.00 0.00 57 1015.1
20260503013210 76 330 3.5 4.3 0.00 0.00 0.00 57 1015.1
20260503012708 76 326 3.5 4.3 0.00 0.00 0.00 57 1015.0
20260503012204 75 22 3.5 4.3 0.00 0.00 0.00 56 1015.2
20260503011700 75 333 4.3 6.1 0.00 0.00 0.00 57 1015.2
20260503011158 76 331 3.5 4.3 0.00 0.00 0.00 56 1015.3
20260503010653 77 336 2.6 2.6 0.00 0.00 0.00 55 1015.4
20260503010151 78 336 5.2 7.8 0.00 0.00 0.00 56 1015.3
20260503005648 77 297 1.7 1.7 0.00 0.00 0.00 54 1015.2
20260503005145 77 339 2.6 2.6 0.00 0.00 0.00 55 1015.4
20260503004641 77 7 2.6 2.6 0.00 0.00 0.00 55 1015.2
20260503004140 78 333 1.7 2.6 0.00 0.00 0.00 54 1015.3
20260503003636 76 319 1.7 2.6 0.00 0.00 0.00 57 1015.4
20260503003133 76 321 2.6 2.6 0.00 0.00 0.00 57 1015.5
20260503002630 77 156 4.3 4.3 0.00 0.00 0.00 57 1015.3
20260503002127 77 328 1.7 2.6 0.00 0.00 0.00 55 1015.4
20260503001623 77 351 1.7 2.6 0.00 0.00 0.00 56 1015.5
20260503001120 77 69 3.5 4.3 0.00 0.00 0.00 55 1015.6
20260503000618 77 325 0.0 1.7 0.00 0.00 0.00 55 1015.4
20260503000115 77 339 4.3 6.1 0.00 0.00 0.00 54 1015.6
20260502235611 77 0 4.3 6.1 0.00 0.00 0.00 56 1015.5
20260502235109 76 341 5.2 7.8 0.00 0.00 0.00 59 1015.7
20260502234605 77 314 0.9 1.7 0.00 0.00 0.00 60 1015.7
20260502234103 76 313 1.7 1.7 0.00 0.00 0.00 60 1015.7
20260502233603 76 294 0.0 1.7 0.00 0.00 0.00 60 1015.9
20260502233100 75 314 0.9 1.7 0.00 0.00 0.00 62 1015.7
20260502232556 75 294 1.7 2.6 0.00 0.00 0.00 63 1015.8
20260502232054 74 323 1.7 2.6 0.00 0.00 0.00 63 1016.2
20260502231550 74 300 2.6 6.1 0.00 0.00 0.00 64 1016.1
20260502231048 73 347 1.7 2.6 0.00 0.00 0.00 62 1016.1
20260502230546 73 340 3.5 4.3 0.00 0.00 0.00 62 1016.1
20260502230045 73 318 0.0 1.7 0.00 0.00 0.00 63 1016.2
20260502225540 73 325 3.5 4.3 0.00 0.00 0.00 61 1016.3
20260502225038 73 355 3.5 4.3 0.00 0.00 0.00 61 1016.3
20260502224533 74 335 2.6 2.6 0.00 0.00 0.00 60 1016.5
20260502224030 75 8 2.6 2.6 0.00 0.00 0.00 60 1016.3
20260502223528 75 354 1.7 2.6 0.00 0.00 0.00 59 1016.7
20260502223026 76 325 5.2 6.1 0.00 0.00 0.00 58 1016.6
20260502222523 75 339 3.5 6.1 0.00 0.00 0.00 63 1016.7
20260502222020 75 328 1.7 2.6 0.00 0.00 0.00 61 1016.9
20260502221515 75 0 2.6 6.1 0.00 0.00 0.00 60 1016.8
20260502221013 74 359 5.2 6.1 0.00 0.00 0.00 62 1016.8
20260502220508 74 315 1.7 2.6 0.00 0.00 0.00 62 1016.9
20260502220005 74 343 1.7 1.7 0.00 0.00 0.00 64 1017.0
20260502215503 74 351 4.3 6.1 0.00 0.00 0.00 59 1016.9
20260502214959 73 165 4.3 4.3 0.00 0.00 0.00 61 1017.1
20260502214456 73 346 1.7 2.6 0.00 0.00 0.00 61 1017.1
20260502213953 73 63 5.2 7.8 0.00 0.00 0.00 64 1017.0
20260502213450 73 318 2.6 2.6 0.00 0.00 0.00 61 1017.2
20260502212948 73 325 3.5 4.3 0.00 0.00 0.00 62 1017.1
20260502212447 73 344 4.3 4.3 0.00 0.00 0.00 63 1017.2
20260502211944 74 328 1.7 2.6 0.00 0.00 0.00 61 1017.3
20260502211439 74 337 2.6 4.3 0.00 0.00 0.00 62 1017.3
20260502210937 72 307 0.0 0.0 0.00 0.00 0.00 65 1017.3
20260502210434 72 245 5.2 6.1 0.00 0.00 0.00 62 1017.4
20260502205931 73 311 4.3 6.1 0.00 0.00 0.00 61 1017.3
20260502205427 73 317 4.3 7.8 0.00 0.00 0.00 67 1017.2
20260502204924 73 312 1.7 1.7 0.00 0.00 0.00 64 1017.6
20260502204421 71 287 1.7 2.6 0.00 0.00 0.00 69 1017.4
20260502203919 70 325 4.3 6.1 0.00 0.00 0.00 67 1017.5
20260502203416 70 342 5.2 6.1 0.00 0.00 0.00 66 1017.6
20260502202912 70 354 3.5 4.3 0.00 0.00 0.00 67 1017.6
20260502202409 70 332 2.6 4.3 0.00 0.00 0.00 67 1017.6
20260502201907 70 322 0.9 1.7 0.00 0.00 0.00 70 1017.6
20260502201403 69 316 1.7 2.6 0.00 0.00 0.00 69 1017.8
20260502200900 71 295 1.7 1.7 0.00 0.00 0.00 67 1017.8
20260502200355 70 299 1.7 1.7 0.00 0.00 0.00 70 1018.1
20260502195854 71 327 0.0 1.7 0.00 0.00 0.00 67 1018.0
20260502195350 71 1 4.3 6.1 0.00 0.00 0.00 64 1017.9
20260502194847 71 315 0.0 0.0 0.00 0.00 0.00 66 1018.1
20260502194343 71 303 0.9 1.7 0.00 0.00 0.00 66 1018.2
20260502193839 70 334 0.9 1.7 0.00 0.00 0.00 66 1018.2